Regional Weather Roundup
Issued by NWS Little Rock, AR

Home | Current Version | Previous Version | Graphics & Text | Print | Product List | Glossary On
Versions: 1 2 3 4 5 6 7 8 9 10 11 12 13 14 15 16 17 18 19 20 21 22 23 24 25 26 27 28 29 30 31 32 33 34 35 36 37 38 39 40 41 42 43 44 45 46 47 48 49 50
000
ASUS44 KLZK 231105
RWRLZK

WEATHER ROUNDUP FOR ARKANSAS
NATIONAL WEATHER SERVICE LITTLE ROCK AR
600 AM CDT WED AUG 23 2017

NOTE: "FAIR" INDICATES FEW OR NO CLOUDS BELOW 12,000 FEET WITH NO
SIGNIFICANT WEATHER AND/OR OBSTRUCTIONS TO VISIBILITY.

ARZ001-003-010-029-231200-
NORTHWEST ARKANSAS

CITY           SKY/WX    TMP DP  RH WIND       PRES   REMARKS
FAYETTEVILLE   CLOUDY    70  69  97 VRB3      30.07F
FORT SMITH     LGT RAIN  73  72  96 SE6       30.04S
HARRISON       CLOUDY    70  65  84 CALM      30.11R
BENTONVILLE    CLOUDY    70  63  78 NE8       30.09S
ROGERS         CLOUDY    69  64  84 NE7       30.10S
HIGHFILL       CLOUDY    70  65  84 NE7       30.09S
SPRINGDALE     PTCLDY    72  66  83 NE10G16   30.10
$$

ARZ004-005-016-231200-
NORTH CENTRAL ARKANSAS

CITY           SKY/WX    TMP DP  RH WIND       PRES   REMARKS
FLIPPIN        CLOUDY    73  57  56 NE3       30.07R
MTN HOME       CLOUDY    70  63  78 VRB5      30.09R
$$

ARZ040-041-231200-
WEST CENTRAL ARKANSAS

CITY           SKY/WX    TMP DP  RH WIND       PRES   REMARKS
MENA           MOCLDY    73  72  94 CALM      30.08R
MOUNT IDA      LGT RAIN  71  70  96 CALM      30.05R
$$

ARZ009-017-025-026-028-231200-
NORTHEAST ARKANSAS

CITY           SKY/WX    TMP DP  RH WIND       PRES   REMARKS
JONESBORO      CLOUDY    73  68  84 NE8       30.03R
NEWPORT        MOCLDY    71  68  90 N7        30.05R
WALNUT RIDGE   CLOUDY    70  64  83 N8        30.05R
BLYTHEVILLE    MOCLDY    71  70  96 NE6       30.04R
$$

ARZ022-023-033-042-044-231200-
CENTRAL ARKANSAS

CITY           SKY/WX    TMP DP  RH WIND       PRES   REMARKS
LITTLE ROCK    LGT RAIN  73  73 100 NW6       30.04R FOG
N LITTLE ROCK    N/A     73  70  92 CALM      30.03F
JACKSONVILLE   HVY RAIN  75  73  94 CALM      30.03S FOG
CONWAY           N/A     73  72  94 CALM      30.02S
SEARCY         CLOUDY    74  73  97 NW3       30.06S
HOT SPRINGS    LGT RAIN  73  73 100 CALM      30.05R
RUSSELLVILLE   LGT RAIN  72  72 100 CALM      30.05R
CLINTON        CLOUDY    73  72  94 CALM      30.06S
$$

ARZ036-231200-
EAST ARKANSAS

CITY           SKY/WX    TMP DP  RH WIND       PRES   REMARKS
WEST MEMPHIS   CLOUDY    72  72 100 CALM      30.00R
$$

ARZ050-053-066-070-073-231200-
SOUTHWEST ARKANSAS

CITY           SKY/WX    TMP DP  RH WIND       PRES   REMARKS
ARKADELPHIA    LGT RAIN  74  73  97 CALM      30.03S
CAMDEN         MOCLDY    75  72  88 NW6       30.01R
TEXARKANA      CLOUDY    74  72  93 NE5       30.02S
EL DORADO      PTCLDY    75  74  96 NW5       30.01R
DE QUEEN       CLOUDY    74  72  93 NE6       30.01R
$$

ARZ056-057-069-231200-
SOUTHEAST ARKANSAS

CITY           SKY/WX    TMP DP  RH WIND       PRES   REMARKS
PINE BLUFF     MOCLDY    75  72  90 N7        30.01R
MONTICELLO     PTCLDY    77  74  90 W3        29.99R

$$





USA.gov is the U.S. government's official web portal to all federal, state and local government web resources and services.